Location: Gollag?dem
(16.8053°N, 80.8024°E)
Time: 10:39:28
(UTC+00:00)

BlueWalker 3 - Visible Passes

Search period start: 08 December 2022 00:00
Search period end: 18 December 2022 00:00
Orbit: 501 x 518 km, 53.2° (Epoch: 07 December)

Date Brightness Start Highest point End Pass type
(mag) Time Alt. Az. Time Alt. Az. Time Alt. Az.
12 Dec 3.7 13:14:02 10° N 13:15:31 18° NNE 13:15:31 18° NNE visible
13 Dec 2.9 12:55:29 10° N 12:58:45 26° NE 13:00:15 20° E visible
13 Dec 5.2 14:34:47 10° W 14:35:16 12° W 14:35:16 12° W visible
14 Dec 2.8 12:36:57 10° N 12:40:19 28° NE 12:43:40 10° ESE visible
14 Dec 5.0 14:16:35 10° W 14:18:43 14° WSW 14:20:50 10° SSW visible
15 Dec 5.2 13:58:26 10° W 14:00:15 13° WSW 14:02:05 10° SSW visible
16 Dec 5.4 13:40:22 10° W 13:41:48 12° WSW 13:43:13 10° SW visible
17 Dec 5.6 13:22:31 10° WSW 13:23:19 11° WSW 13:24:08 10° SW visible
